Regional Weather Roundup
Issued by NWS

Home | Current Version | Previous Version | Graphics & Text | Print | Product List | Glossary On
Versions: 1 2 3 4 5 6 7 8 9 10 11 12 13 14 15 16 17 18 19 20 21 22 23 24 25 26 27 28 29 30 31 32 33 34 35 36 37 38 39 40 41 42 43 44 45 46 47 48 49 50
000
ASUS43 KLSX 240907
RWRMO

WEATHER SUMMARY FOR MISSOURI
NATIONAL WEATHER SERVICE SPRINGFIELD MO
400 AM CDT SUN SEP 24 2017

NOTE: "FAIR" INDICATES FEW OR NO CLOUDS BELOW 12,000 FEET WITH NO
       SIGNIFICANT WEATHER AND/OR OBSTRUCTIONS TO VISIBILITY.
       CURRENT SKY AND/OR WEATHER CONDITIONS ARE NOT AVAILABLE FOR
       CHILLICOTHE AND FARMINGTON.

MOZ001>031-035>038-043-044-053-054-241000-
...NORTHERN AND WESTERN MISSOURI...

CITY           SKY/WX    TMP DP  RH WIND       PRES   REMARKS
KANSAS CTY INT CLEAR     70  66  87 SE7       29.95S
KANSAS C DTWN  CLEAR     78  66  66 S7        29.94S
LEE`S SUMMIT   CLEAR     73  67  81 SE10      29.96S
ST JOSEPH      CLEAR     65  64  97 NE3       29.93F
CHILLICOTHE      N/A     72  65  78 CALM      29.98R
KIRKSVILLE     CLEAR     66  61  84 SE5       30.00S

$$
MOZ066>068-077>081-088>096-101>105-241000-
...SOUTHWEST MISSOURI...

CITY           SKY/WX    TMP DP  RH WIND       PRES   REMARKS
SPRINGFIELD    CLEAR     70  65  84 SE5       29.99S
JOPLIN         CLEAR     71  66  84 SE6       29.97R
BRANSON          N/A     68  64  88 SE6       30.01S

$$
MOZ032>034-039>042-045>050-055>058-069>072-241000-
...CENTRAL MISSOURI...

CITY           SKY/WX    TMP DP  RH WIND       PRES   REMARKS
COLUMBIA       CLEAR     72  64  76 SE7       30.00S
JEFFERSON CITY CLEAR     69  63  81 SE5       29.99S
ROLLA          CLEAR     68  63  84 S7        30.02S
SEDALIA        CLEAR     69  67  93 SE7       29.99S
WHITEMAN AFB   CLEAR     69  69 100 S6        29.96S
WARRENSBURG    CLEAR     70  64  83 SE7       29.96S
OSAGE BEACH    CLEAR     68  64  87 SE5       30.00F

$$
MOZ051-052-059>065-241000-
...EAST CENTRAL MISSOURI...

CITY           SKY/WX    TMP DP  RH WIND       PRES   REMARKS
ST LOUIS INTL  CLEAR     73  63  70 E6        30.02S
SPIRIT OF STL  CLEAR     66  65  96 CALM      30.00S
ST CHARLES     CLEAR     68  63  84 E6        30.01R

$$
MOZ072>076-082>087-097>100-106>115-241000-
...SOUTH CENTRAL AND SOUTHEAST MISSOURI...

CITY           SKY/WX    TMP DP  RH WIND       PRES   REMARKS
CAPE GIRARDEAU CLEAR     66  65  96 CALM      30.00S
FARMINGTON     CLEAR     63  62  97 CALM      30.04S
POPLAR BLUFF   CLEAR     68  66  93 CALM      29.99S
WEST PLAINS    CLEAR     64  62  93 NE3       30.03S

$$



USA.gov is the U.S. government's official web portal to all federal, state and local government web resources and services.